Regional Weather Roundup
Issued by NWS

Home | Current Version | Previous Version | Text Only | Print | Product List | Glossary Off
Versions: 1 2 3 4 5 6 7 8 9 10 11 12 13 14 15 16 17 18 19 20 21 22 23 24 25 26 27 28 29 30 31 32 33 34 35 36 37 38 39 40 41 42 43 44 45 46 47 48 49 50

824
ASUS44 KJAN 210010
RWRMS

MISSISSIPPI HOURLY WEATHER ROUNDUP
NATIONAL WEATHER SERVICE JACKSON MS
700 PM CDT WED AUG 20 2014

NOTE: "FAIR: INDICATES FEW OR NO CLOUDS BELOW 12,000 FEET WITH NO
SIGNIFICANT WEATHER AND/OR OBSTRUCTIONS TO VISIBILITY.

MSZ001>002-007>008-010>013-018>021-025>028-034>036-210100-
NORTHWEST MISSISSIPPI

CITY           SKY/WX    TMP DP  RH WIND       PRES   REMARKS
CLARKSDALE     FAIR      88  75  66 S3        30.00S HX  97
CLEVELAND      FAIR      89  73  57 SW3       30.00R HX  96
GREENWOOD      CLEAR     86  77  74 SW5       30.01R HX  97
6HR MIN TEMP:  86; 6HR MAX TEMP:  92;

GREENVILLE     CLEAR     89  71  55 S7        30.00R HX  95
GRENADA        FAIR      88  70  55 S5        30.01S HX  92
OLIVE BRANCH   PTCLDY    88  73  62 S12       29.98F HX  96
OXFORD         FAIR      86  70  58 W3        30.02S HX  90
TUNICA         CLEAR     88  72  58 S8        29.99S HX  94
$$

MSZ003>006-009-014>017-022>024-029>033-037>039-210100-
NORTHEAST MISSISSIPPI

CITY           SKY/WX    TMP DP  RH WIND       PRES   REMARKS
BELMONT        FAIR      85  75  70 CALM      30.01R HX  94
COLUMBUS AFB   CLEAR     90  71  53 W6        30.00S HX  96
6HR MIN TEMP:  90; 6HR MAX TEMP:  94;

CORINTH        FAIR      88  70  55 SW6       29.99R HX  92
GOLDN TRIANGLE PTCLDY    93  70  46 NW5       30.01R HX  99
STARKVILLE     FAIR      90  70  51 CALM      30.00S HX  95
TUPELO         CLEAR     89  72  56 W6        30.00R HX  96
6HR MIN TEMP:  89; 6HR MAX TEMP:  96;

$$

MSZ040-058-210100-
CENTRAL MISSISSIPPI

CITY           SKY/WX    TMP DP  RH WIND       PRES   REMARKS
JACKSON INTL   CLEAR     89  71  55 S6        30.03S HX  95
6HR MIN TEMP:  89; 6HR MAX TEMP:  95;

JACKSON HAWKNS CLEAR     90  71  53 SW6       30.03S HX  96
6HR MIN TEMP:  90; 6HR MAX TEMP:  95;

MERIDIAN KEY   CLEAR     89  71  55 SW5       30.03R HX  95
6HR MIN TEMP:  89; 6HR MAX TEMP:  95;

MERIDIAN NAS   CLEAR     89  73  59 W3        30.02S HX  97
6HR MIN TEMP:  89; 6HR MAX TEMP:  94;

RAYMOND        FAIR      90  84  84 SW3       30.03S HX 115
VICKSBURG      CLEAR     87  72  60 S5        30.02S HX  93
6HR MIN TEMP:  87; 6HR MAX TEMP:  93;

$$

MSZ059>079-210100-
SOUTH MISSISSIPPI

CITY           SKY/WX    TMP DP  RH WIND       PRES   REMARKS
BROOKHAVEN     FAIR      90  72  55 CALM      30.06S HX  96
COLUMBIA       FAIR      88  77  70 MISG      30.03R HX 100
HATTIESBURG    CLEAR     93  66  40 SW6       30.03S HX  96
6HR MIN TEMP:  91; 6HR MAX TEMP:  97;

MCCOMB         MOCLDY    83  73  72 S6        30.05S
6HR MIN TEMP:  83; 6HR MAX TEMP:  94;

NATCHEZ        PTCLDY    84  75  74 SW6       30.04S HX  92
6HR MIN TEMP:  84; 6HR MAX TEMP:  91;

PINE BELT      CLEAR     91  70  49 CALM      30.06S HX  97
6HR MIN TEMP:  91; 6HR MAX TEMP:  95;

$$

MSZ080>082-210100-
COASTAL MISSISSIPPI

CITY           SKY/WX    TMP DP  RH WIND       PRES   REMARKS
BAY ST LOUIS   PTCLDY   N/A N/A N/A SW5       30.05S
BILOXI         MOCLDY    87  76  70 SW12      30.05S HX  97
6HR MIN TEMP:  87; 6HR MAX TEMP:  92;

PASCAGOULA     PTCLDY    85  75  72 SW6       30.05R HX  93
6HR MIN TEMP:  85; 6HR MAX TEMP:  92;

GULFPORT       PTCLDY    87  76  69 S7        30.04S HX  97
6HR MIN TEMP:  87; 6HR MAX TEMP:  92;

$$



USA.gov is the U.S. government's official web portal to all federal, state and local government web resources and services.